Main page
METAR-TAF:

METAR-TAF

Airports :

Albert Whitted Airport

St. Petersburg, Florida, United States

latitude: 27-46-04N, longitude: 082-37-34W, elevation: 7 ft

Current weather observation

The report was made 17 minutes ago, at 06:53 UTC
Wind 14 mph from the East
Temperature 73°F
Humidity 73%
Pressure 30.09 in. Hg
Visibility: 10 miles
Few clouds at a height of 7000 ft

METAR: KSPG 180653Z AUTO 09012KT 10SM FEW070 23/18 A3009 RMK AO2 SLP189 T02330178

Time: 03:10 (07:10 UTC)


TAF: missing

Weather observations and forecasts of more than 4000 airports (METAR and TAF reports).

The available stations are represented by yellow and red dots on the map.

Hover mouse over dot to see the name of the station.

Then click to see weather observations and forecasts.

To change the map : click on the green buttons with a black cross to zoom in, on the green button with a dash to zoom out, or on the green arrows for adjacent maps.


METAR-TAF: